Weather Roundup
Issued by NWS

Home | Current Version | Previous Version | Text Only | Print | Product List | Glossary On
Versions: 1 2 3 4 5 6 7 8 9 10 11 12 13 14 15 16 17 18 19 20 21 22 23 24 25 26 27 28 29 30 31 32 33 34 35 36 37 38 39 40 41 42 43 44 45 46 47 48 49 50
000
NZUS93 KARX 222110
HRRWXR

CURRENT HOURLY OBSERVATIONS ACROSS
MUCH OF THE UPPER MISSISSIPPI VALLEY
NATIONAL WEATHER SERVICE LA CROSSE WI
400 PM CDT WED OCT 22 2014


...SOUTHEAST MINNESOTA...


CITY           SKY/WX    TMP DP  RH WIND       PRES   REMARKS
ROCHESTER      MOSUNNY   58  40  51 S17G26    30.15F
ROCHESTER/MAYO MOCLDY    57  36  44 SE15G26   30.14F
WINONA         PTSUNNY   59  37  44 S6        30.18F
AUSTIN         PTSUNNY   57  41  54 S16G22    30.13S
ALBERT LEA     MOSUNNY   61  43  51 SE21G28   30.09F
DODGE CENTER   MOSUNNY   59  43  55 S17       30.12F
PRESTON        PTSUNNY   57  39  52 SE17G25   30.16F
OWATONNA       MOSUNNY   61  41  48 SE18G25   30.08F
FARIBAULT      MOSUNNY   61  43  51 SE18G24   30.08F
$$

...ELSEWHERE IN MINNESOTA...


CITY           SKY/WX    TMP DP  RH WIND       PRES   REMARKS
MINNEAPOLIS    MOSUNNY   60  41  49 SE24G30   30.07F
INTNL FALLS    PTSUNNY   61  43  51 S9G23     29.91F
DULUTH         PTSUNNY   55  40  56 SE12      30.06F
RED WING       NOT AVBL
REDWOOD FALLS  CLOUDY    67  45  45 SE21      29.95F
MANKATO        PTSUNNY   63  41  45 SE20G30   30.04S
WORTHINGTON    PTSUNNY   72  48  43 S16G29    29.95F
FAIRMONT       PTSUNNY   63  43  48 S25       30.03S
$$

...SOUTHWEST WISCONSIN...


CITY           SKY/WX    TMP DP  RH WIND       PRES   REMARKS
LA CROSSE      SUNNY     61  37  41 S10       30.19F
PRAIRIE DU CHI SUNNY     60  36  41 SE8       30.21F
BOSCOBEL       SUNNY     61  37  41 VRB6      30.24S
LONE ROCK      SUNNY     62  37  39 SE8       30.24F
PLATTEVILLE    SUNNY     59  38  44 S9        30.25S
FORT MC COY    SUNNY     60  35  39 SE9       30.22F
CAMP DOUGLAS   MOSUNNY   57  37  47 SE9       30.23S
VIROQUA        FAIR      59  36  42 S8        30.21F
WIS DELLS      SUNNY     58  35  42 S8        30.24S
$$

...ELSEWHERE IN WISCONSIN...


CITY           SKY/WX    TMP DP  RH WIND       PRES   REMARKS
MILWAUKEE      MOSUNNY   50  39  66 E13       30.31F
MADISON        MOSUNNY   58  35  42 SE10      30.25F
GREEN BAY      SUNNY     54  35  48 S7        30.29F
EAU CLAIRE     PTSUNNY   59  33  37 SE10      30.16F
BLACK RVR FLS  FAIR      61  31  32 S9        30.20F
MEDFORD        SUNNY     54  33  46 S10       30.21F
WAUSAU         SUNNY     55  32  41 SE13      30.23F
WIS RAPIDS     SUNNY     57  35  43 SE9       30.24F
MARSHFIELD     SUNNY     56  32  40 S13       30.22F
RICE LAKE      PTSUNNY   55  36  48 SE14G21   30.16F
$$

...NORTHEAST IOWA...


CITY           SKY/WX    TMP DP  RH WIND       PRES   REMARKS
DECORAH        MOSUNNY   57  37  47 SE13      30.18F
MASON CITY     MOSUNNY   61  43  51 S23       30.13F
CHARLES CITY   PTSUNNY   59  39  47 SE17      30.16F
OELWEIN        SUNNY     59  39  47 S16       30.19F
$$

...ELSEWHERE IN IOWA...


CITY           SKY/WX    TMP DP  RH WIND       PRES   REMARKS
DES MOINES     MOSUNNY   67  47  48 S15       30.12F
IOWA CITY      SUNNY     60  42  51 SE10      30.22F
FORT DODGE     PTSUNNY   64  45  48 S13       30.08F
$$

...NORTHERN ILLINOIS...


CITY           SKY/WX    TMP DP  RH WIND       PRES   REMARKS
CHICAGO-OHARE  SUNNY     54  38  54 E8        30.29F
CHICAGO-MIDWAY MOSUNNY   54  36  50 E8        30.30F
MOLINE         SUNNY     61  38  42 S8        30.24F
ROCKFORD       SUNNY     59  35  40 S8        30.28F
PEORIA         SUNNY     62  38  40 S7        30.26F
$$

NOTE: "FAIR" INDICATES FEW OR NO CLOUDS BELOW 12,000 FEET WITH NO
SIGNIFICANT WEATHER AND/OR OBSTRUCTIONS TO VISIBILITY. WIND
SPEEDS ARE IN MILES-PER-HOUR.



USA.gov is the U.S. government's official web portal to all federal, state and local government web resources and services.